Date String (YYYY-MM-DD hh:mm:ss) UTC,Instrument flags,absolute air pressure of the measurement (hPa),sample flow rate (lpm),inlet stack bypass flow (lpm),air temperature of the measurement (°C),ambient temperature measured by the external sensor (°C),aerosol sample conditioner tube jacket temperature (°C),OPC LED temperature (°C),internal box temperature (°C),relative humidity of the measurement (%),span deviation,mass concentration of particles derived from Lorenz-Mie calculation of OPC scattering (μg/m³),mass concentration of particles derived from Lorenz-Mie calculation of OPC scattering (μg/m³),mass concentration of particles derived from Lorenz-Mie calculation of OPC scattering (μg/m³)
DateTimeUTC,F1_M11,P_M11,Q1_M11,Q2_M11,T1_M11,T2_M11,T3_M11,T4_M11,T5_M11,U1_M11,ZSPAN_M11,X0_M11,X2_M11,X1_M11
2024-05-14 10:00:00,SystemResetWarning,0825.7,4.99,000.00,025.3,024.8,000.0,033.3,027.1,020.4,0000.0,0012.53,0003.56,0002.50
2024-05-14 10:01:00,SystemResetWarning,0825.7,4.99,000.00,025.3,024.9,000.0,033.3,027.2,020.5,0000.0,0013.77,0003.61,0002.52
2024-05-14 10:02:00,SystemResetWarning,0825.7,5.00,000.00,025.4,024.9,000.0,033.3,027.2,020.4,0000.0,0013.79,0003.59,0002.53
2024-05-14 10:03:00,SystemResetWarning,0825.8,5.01,000.00,025.4,025.0,000.0,033.4,027.2,020.6,0000.0,0013.12,0003.62,0002.56
2024-05-14 10:04:00,SystemResetWarning,0825.7,4.98,000.00,025.3,023.6,000.0,033.5,026.5,020.8,0000.0,0012.84,0003.62,0002.59
2024-05-14 10:05:00,SystemResetWarning,0825.6,5.01,000.00,024.9,021.9,000.0,033.5,025.6,020.8,0000.0,0013.71,0003.63,0002.61
2024-05-14 10:06:00,SystemResetWarning,0825.6,5.01,000.00,024.6,022.0,000.0,033.5,025.5,020.9,0000.0,0014.29,0003.64,0002.64
2024-05-14 10:07:00,SystemResetWarning,0825.7,4.98,000.00,024.6,022.3,000.0,033.3,025.7,020.8,0000.0,0013.66,0003.59,0002.64
2024-05-14 10:08:00,SystemResetWarning,0825.6,5.00,000.00,024.6,022.7,000.0,033.2,026.0,020.7,0000.0,0014.47,0003.60,0002.63
2024-05-14 10:09:00,SystemResetWarning,0825.7,5.00,000.00,024.6,023.0,000.0,033.1,026.2,020.5,0000.0,0014.43,0003.59,0002.62
2024-05-14 10:10:00,SystemResetWarning,0825.7,5.01,000.00,024.7,023.3,000.0,033.1,026.3,020.5,0000.0,0012.57,0003.56,0002.61
2024-05-14 10:11:00,SystemResetWarning,0825.7,4.99,000.00,024.7,023.6,000.0,033.1,026.5,020.4,0000.0,0011.67,0003.56,0002.62
2024-05-14 10:12:00,SystemResetWarning,0825.8,5.00,000.00,024.8,023.8,000.0,033.1,026.5,020.5,0000.0,0010.66,0003.48,0002.59
2024-05-14 10:13:00,SystemResetWarning,0825.8,5.00,000.00,024.8,024.0,000.0,033.1,026.6,020.4,0000.0,0010.34,0003.43,0002.58
2024-05-14 10:14:00,SystemResetWarning,0825.8,5.00,000.00,024.9,024.1,000.0,033.1,026.7,020.2,0000.0,0010.33,0003.40,0002.58
2024-05-14 10:15:00,SystemResetWarning,0825.8,5.00,000.00,024.9,024.2,000.0,033.1,026.7,020.0,0000.0,0010.29,0003.39,0002.56
2024-05-14 10:16:00,SystemResetWarning,0825.8,5.00,000.00,025.0,024.4,000.0,033.1,026.8,019.9,0000.0,0009.93,0003.39,0002.55
2024-05-14 10:17:00,SystemResetWarning,0825.7,4.99,000.00,025.0,024.5,000.0,033.1,026.9,019.8,0000.0,0009.71,0003.40,0002.55
2024-05-14 10:18:00,SystemResetWarning,0825.7,4.99,000.00,025.1,024.6,000.0,033.1,026.9,019.6,0000.0,0009.77,0003.44,0002.57
2024-05-14 10:19:00,SystemResetWarning,0825.7,5.00,000.00,025.1,024.6,000.0,033.2,027.0,019.6,0000.0,0009.50,0003.42,0002.58
2024-05-14 10:20:00,SystemResetWarning,0825.7,5.00,000.00,025.2,024.7,000.0,033.2,027.0,019.4,0000.0,0009.21,0003.38,0002.58
2024-05-14 10:21:00,SystemResetWarning,0825.6,5.00,000.00,025.2,024.8,000.0,033.2,027.1,019.0,0000.0,0009.17,0003.35,0002.58
2024-05-14 10:22:00,SystemResetWarning,0825.6,5.00,000.00,025.3,024.8,000.0,033.3,027.1,019.4,0000.0,0009.15,0003.31,0002.56
2024-05-14 10:23:00,SystemResetWarning,0825.6,5.00,000.00,025.3,024.9,000.0,033.3,027.2,019.7,0000.0,0009.03,0003.29,0002.55
2024-05-14 10:24:00,SystemResetWarning,0825.6,4.99,000.00,025.4,024.9,000.0,033.3,027.2,020.2,0000.0,0008.93,0003.29,0002.55
2024-05-14 10:25:00,SystemResetWarning,0825.6,4.99,000.00,025.4,024.9,000.0,033.4,027.2,020.6,0000.0,0009.34,0003.28,0002.57
2024-05-14 10:26:00,SystemResetWarning,0825.6,5.00,000.00,025.3,023.3,000.0,033.5,026.4,020.6,0000.0,0009.48,0003.30,0002.59
2024-05-14 10:27:00,SystemResetWarning,0825.5,5.00,000.00,024.8,021.9,000.0,033.5,025.6,020.4,0000.0,0009.26,0003.32,0002.62
2024-05-14 10:28:00,SystemResetWarning,0825.5,5.02,000.00,024.6,022.0,000.0,033.4,025.5,020.6,0000.0,0008.34,0003.31,0002.63
2024-05-14 10:29:00,SystemResetWarning,0825.6,5.00,000.00,024.6,022.4,000.0,033.3,025.7,021.2,0000.0,0008.38,0003.30,0002.63
2024-05-14 10:30:00,SystemResetWarning,0825.6,5.00,000.00,024.6,022.7,000.0,033.2,026.0,020.9,0000.0,0008.12,0003.29,0002.64
2024-05-14 10:31:00,SystemResetWarning,0825.6,5.00,000.00,024.6,023.1,000.0,033.1,026.2,019.9,0000.0,0007.62,0003.30,0002.64
2024-05-14 10:32:00,SystemResetWarning,0825.5,5.00,000.00,024.7,023.4,000.0,033.1,026.3,019.6,0000.0,0008.52,0003.28,0002.63
2024-05-14 10:33:00,SystemResetWarning,0825.5,5.00,000.00,024.7,023.6,000.0,033.1,026.4,020.3,0000.0,0008.43,0003.26,0002.62
2024-05-14 10:34:00,SystemResetWarning,0825.6,5.01,000.00,024.7,023.8,000.0,033.0,026.5,020.0,0000.0,0007.98,0003.25,0002.64
2024-05-14 10:35:00,SystemResetWarning,0825.5,5.01,000.00,024.8,024.0,000.0,033.0,026.6,019.3,0000.0,0008.16,0003.26,0002.64
2024-05-14 10:36:00,SystemResetWarning,0825.5,4.99,000.00,024.9,024.1,000.0,033.1,026.6,019.9,0000.0,0007.71,0003.26,0002.61
2024-05-14 10:37:00,SystemResetWarning,0825.6,5.00,000.00,024.9,024.2,000.0,033.1,026.7,019.4,0000.0,0007.50,0003.26,0002.58
2024-05-14 10:38:00,SystemResetWarning,0825.6,5.01,000.00,025.0,024.3,000.0,033.1,026.8,019.0,0000.0,0007.35,0003.20,0002.54
2024-05-14 10:39:00,SystemResetWarning,0825.6,5.01,000.00,025.0,024.4,000.0,033.1,026.8,018.9,0000.0,0007.24,0003.16,0002.51
2024-05-14 10:40:00,SystemResetWarning,0825.6,5.00,000.00,025.1,024.5,000.0,033.1,026.9,018.8,0000.0,0006.98,0003.10,0002.46
2024-05-14 10:41:00,SystemResetWarning,0825.6,4.99,000.00,025.1,024.6,000.0,033.2,026.9,018.8,0000.0,0006.81,0003.03,0002.41
2024-05-14 10:42:00,SystemResetWarning,0825.6,5.00,000.00,025.2,024.7,000.0,033.2,027.0,018.9,0000.0,0006.56,0002.94,0002.36
2024-05-14 10:43:00,SystemResetWarning,0825.6,5.01,000.00,025.2,024.7,000.0,033.2,027.1,018.9,0000.0,0005.04,0002.88,0002.33
2024-05-14 10:44:00,SystemResetWarning,0825.6,5.00,000.00,025.3,024.8,000.0,033.3,027.1,018.8,0000.0,0004.37,0002.85,0002.32
2024-05-14 10:45:00,SystemResetWarning,0825.6,5.00,000.00,025.3,024.9,000.0,033.3,027.1,018.7,0000.0,0004.36,0002.83,0002.30
2024-05-14 10:46:00,SystemResetWarning,0825.6,5.00,000.00,025.3,024.9,000.0,033.3,027.2,018.7,0000.0,0003.95,0002.78,0002.26
2024-05-14 10:47:00,SystemResetWarning,0825.6,5.00,000.00,025.4,025.0,000.0,033.4,027.2,018.7,0000.0,0003.91,0002.77,0002.26
2024-05-14 10:48:00,SystemResetWarning,0825.6,4.99,000.00,025.4,024.3,000.0,033.4,026.8,018.6,0000.0,0004.71,0002.74,0002.24
2024-05-14 10:49:00,SystemResetWarning,0825.5,5.00,000.00,025.0,022.3,000.0,033.5,025.7,019.0,0000.0,0004.59,0002.69,0002.22
2024-05-14 10:50:00,SystemResetWarning,0825.5,5.02,000.00,024.7,022.0,000.0,033.5,025.5,019.4,0000.0,0004.63,0002.70,0002.21
2024-05-14 10:51:00,SystemResetWarning,0825.5,5.00,000.00,024.6,022.3,000.0,033.3,025.6,019.6,0000.0,0004.67,0002.70,0002.20
2024-05-14 10:52:00,SystemResetWarning,0825.6,5.01,000.00,024.6,022.6,000.0,033.2,025.9,019.5,0000.0,0004.71,0002.72,0002.21
2024-05-14 10:53:00,SystemResetWarning,0825.5,5.00,000.00,024.6,022.9,000.0,033.1,026.1,019.5,0000.0,0004.75,0002.73,0002.21
2024-05-14 10:54:00,SystemResetWarning,0825.6,4.99,000.00,024.6,023.2,000.0,033.1,026.3,019.5,0000.0,0004.98,0002.75,0002.19
2024-05-14 10:55:00,SystemResetWarning,0825.6,5.00,000.00,024.7,023.5,000.0,033.0,026.4,019.5,0000.0,0005.18,0002.73,0002.19
2024-05-14 10:56:00,SystemResetWarning,0825.6,5.00,000.00,024.7,023.7,000.0,033.0,026.4,020.5,0000.0,0005.08,0002.69,0002.18
2024-05-14 10:57:00,SystemResetWarning,0825.6,5.01,000.00,024.8,023.9,000.0,033.0,026.6,020.7,0000.0,0005.02,0002.68,0002.22
2024-05-14 10:58:00,SystemResetWarning,0825.5,5.00,000.00,024.8,024.0,000.0,033.0,026.6,020.1,0000.0,0005.21,0002.75,0002.25
2024-05-14 10:59:00,SystemResetWarning,0825.6,4.99,000.00,024.9,024.2,000.0,033.0,026.7,019.8,0000.0,0004.38,0002.73,0002.27
